Flag for Germany Weather past 2 weeks in Güstrow, Mecklenburg-Western Pomerania, Germany

Now
37 °F

Light rain. Passing clouds.


Feels Like: 27 °F
Forecast: 36 / 44 °F
Wind: 22 mph from Northwest

Location: Laage

Current Time: Apr 1, 2015 at 12:45:04 AM

Latest Report: Mar 31, 2015 at 11:20 PM


Visibility: N/A

Pressure: 29.33 "Hg

Humidity: 93%

Dew point: 36 °F

Location of GüstrowLocation

Historic Weather in Güstrow — Graph

°F

Güstrow temperature yesterday

Maximum temperature yesterday: 48 °F (at 1:20 PM)
Minimum temperature yesterday: 32 °F (at 8:20 AM)
Average temperature yesterday: 39 °F

Past Weeks' High & Low Weather Summary

 TemperatureHumidityPressure
High59 °F (Mar 17, 3:20 PM)100% (Mar 21, 6:20 AM)30.45 "Hg (Mar 21, 6:20 AM)
Low27 °F (Mar 20, 5:20 AM)23% (Mar 18, 3:20 PM)28.85 "Hg (Mar 30, 1:20 AM)
Average41 °F76%29.89 "Hg
* Reported Mar 16 10:20 PM — Mar 31 11:20 PM, Güstrow, Weather by CustomWeather, © 2015

Note: Actual official high and low records may vary slightly from our data, if they occured in-between our weather recording intervals... More about our weather records

Advertising

Güstrow weather history for previous 24 hours

 ConditionsComfort  
Time TempWeatherWind HumidityBarometerVisibility
11:20 PM
Tue, Mar 31
37 °FLight rain. Passing clouds.22 mph93%29.33 "HgN/A
10:20 PM37 °FLight rain. Passing clouds.20 mph93%29.30 "Hg6 mi
9:20 PM39 °FLight rain. Partly cloudy.30 mph87%29.27 "HgN/A
8:20 PM39 °FLight rain. Partly sunny.37 mph87%29.15 "Hg6 mi
7:20 PM39 °FRain. Fog.45 mph87%29.06 "Hg3 mi
6:20 PM41 °FSprinkles. Mostly cloudy.37 mph87%29.00 "HgN/A
5:56 PM41 °FRain showers. Fog.28 mph93%29.00 "Hg3 mi
5:20 PM43 °FPartly sunny.29 mph87%29.00 "HgN/A
4:20 PM45 °FSprinkles. Mostly cloudy.24 mph87%28.97 "HgN/A
3:20 PM45 °FPartly sunny.26 mph87%28.94 "HgN/A
2:20 PM46 °FLight rain. Partly sunny.25 mph82%28.94 "Hg6 mi
1:20 PM48 °FPartly sunny.25 mph82%28.91 "HgN/A
12:50 PM46 °FPartly sunny.25 mph87%28.91 "HgN/A
12:20 PM45 °FPartly sunny.20 mph93%28.91 "HgN/A
11:20 AM37 °FPartly sunny.10 mph100%28.91 "HgN/A
10:20 AM34 °FLight snow. Partly sunny.9 mph100%28.94 "Hg4 mi
9:20 AM32 °FSnow. Partly sunny.9 mph100%28.97 "Hg1 mi
8:55 AM32 °FSnow. More clouds than sun.12 mph100%29.00 "Hg1 mi
8:20 AM32 °FRain. More clouds than sun.14 mph100%29.03 "Hg1 mi
7:20 AM34 °FRain. Low clouds.13 mph93%29.12 "Hg1 mi
6:20 AM36 °FLight rain. Partly cloudy.10 mph93%29.21 "Hg4 mi
5:20 AM39 °FPartly cloudy.10 mph70%29.30 "HgN/A
4:20 AM39 °FPassing clouds.9 mph75%29.36 "HgN/A
3:20 AM37 °FOvercast.10 mph81%29.42 "HgN/A
2:20 AM37 °FOvercast.13 mph87%29.47 "HgN/A
1:20 AM37 °FPassing clouds.9 mph81%29.50 "HgN/A
12:20 AM37 °FPassing clouds.12 mph81%29.53 "HgN/A
Weather by CustomWeather, © 2015

See weather overviewHow to use our weather pages